This is the latest recevied weather packets stored in our database for station/object WI0K. If no packets are shown the sender has not sent any weather packets the latest 10 day(s).
| Time | Temp. | Humidity | Pressure | Rain* | Wind** | Luminosity | Snow |
|---|---|---|---|---|---|---|---|
| 1777754344 | 19.44° C | 15% | 1019.6 hPa | 0 mm | - | 925 W/m² | - |
| 1777754093 | 19.44° C | 15% | 1019.6 hPa | 0 mm | - | 925 W/m² | - |
| 1777753793 | 19.44° C | 15% | 1019.6 hPa | 0 mm | - | 929 W/m² | - |
| 1777753743 | 19.44° C | 15% | 1019.6 hPa | 0 mm | - | 943 W/m² | - |
| 1777753492 | 19.44° C | 15% | 1019.6 hPa | 0 mm | - | 943 W/m² | - |
| 1777753443 | 19.44° C | 15% | 1019.7 hPa | 0 mm | - | 950 W/m² | - |
| 1777753191 | 19.44° C | 15% | 1019.7 hPa | 0 mm | - | 950 W/m² | - |
| 1777752890 | 19.44° C | 15% | 1019.8 hPa | 0 mm | - | 959 W/m² | - |
| 1777752846 | 19.44° C | 16% | 832.6 hPa | 0 mm | - | 963 W/m² | - |
| 1777752590 | 19.44° C | 16% | 832.6 hPa | 0 mm | - | 963 W/m² | - |
| 1777752536 | 19.44° C | 16% | 832.7 hPa | 0 mm | - | 969 W/m² | - |
| 1777752289 | 19.44° C | 16% | 832.7 hPa | 0 mm | - | 969 W/m² | - |
| 1777751988 | 19.44° C | 16% | 832.7 hPa | 0 mm | - | 977 W/m² | - |
| 1777751688 | 18.89° C | 16% | 832.7 hPa | 0 mm | - | 983 W/m² | - |
| 1777751387 | 19.44° C | 17% | 1020.1 hPa | 0 mm | - | 992 W/m² | - |
| 1777751086 | 19.44° C | 18% | 832.8 hPa | 0 mm | - | 994 W/m² | - |
| 1777750785 | 18.89° C | 18% | 1020.2 hPa | 0 mm | - | 999 W/m² | - |
| 1777750485 | 18.89° C | 18% | 1020.3 hPa | 0 mm | - | 999 W/m² | - |
| 1777750184 | 18.89° C | 18% | 833 hPa | 0 mm | - | 999 W/m² | - |
| 1777749884 | 18.33° C | 20% | 1020.4 hPa | 0 mm | - | 999 W/m² | - |
| 1777749583 | 18.33° C | 18% | 833.1 hPa | 0 mm | - | 999 W/m² | - |
| 1777749282 | 18.33° C | 19% | 833.2 hPa | 0 mm | - | 999 W/m² | - |
| 1777748981 | 18.33° C | 20% | 833.2 hPa | 0 mm | - | 999 W/m² | - |
| 1777748681 | 17.78° C | 19% | 833.3 hPa | 0 mm | - | 999 W/m² | - |
| 1777748380 | 17.78° C | 19% | 833.4 hPa | 0 mm | - | 999 W/m² | - |
* Rain latest hour (hover to see other rain measurements)
** Current wind speed in m/s (hover to see current wind gust speed)